Погода в Тонтоне

Великобритания     51°01′10″N   3°05′32″W
темп.,
°C
ветер,
м/с
пор.,
м/с
влажн.,
%
обл.,
%
осадки,
мм/ч
давл.,
гПа
погр.,
м
29 июня, ср
ср2901:00+14ююз5109538 4.4 1011595
04:00+11ю36973 0.1 1010130
07:00+13ююз489373 0.1 1010644
10:00+17ююз456837 0.1 10101119
13:00+17ююз567096 1.0 10101114
16:00+16юз5683100 2.2 1011811
19:00+14юз3589100 4.1 1010251
22:00+11ююз369399 0.9 1011121
30 июня, чт
чт3001:00+10ююз119334 1.0 101011
04:00+9юз1192100 0.0 101011
07:00+11зюз129016 0.0 101188
10:00+15юз117174 0.2 1011851
13:00+16зюз3476100 2.7 1011875
16:00+15ююз3476100 1.6 1012676
19:00+14зсз358527 4.8 1012543
22:00+11з389476 1.1 1014208
1 июля, пт
пт101:00+9зюз34955 1.1 101568
04:00+8юз34954 0.0 101572
07:00+11юз39945 0.0 1016269
10:00+16зюз567236 0.2 10171066
13:00+18зюз5755100 0.8 10171812
16:00+17зюз466596 0.2 10181054
19:00+16зюз577912 0.8 1018790
22:00+11юз49890 0.1 1020178
2 июля, сб
сб201:00+10ююз39958 0.1 1019199
04:00+11ююз41196100 0.0 1018334
07:00+14ююз61190100 0.0 1018577
10:00+15ююз61084100 0.1 1018729
13:00+15юз479050 1.2 1018550
16:00+17з4769100 0.9 10181189
19:00+17зсз46635 0.9 10191126
22:00+11з35920 0.1 102173
3 июля, вс
вс301:00+9зюз3495100 0.1 102167
04:00+10зюз2294100 0.0 102134
07:00+13зюз248755 0.0 1022151
10:00+16сз567261 0.1 1023985
13:00+19сз665813 0.1 10241363
16:00+19сз66587 0.0 10241253
19:00+17сз456125 0.0 1025712
22:00+11зсз22885 0.0 102519